When you browse on this site, cookies collect data to enhance your experience and personalize the content and advertising you see.
Visit our Privacy Policy to learn more. By continuing to use the site, you agree to this use of cookies and data.
  • In Czech Republic
  • List of Countries
  • For 7 days
  • Water Temperature
  • Satellite Maps
  • Weather Map
  • Weather Widgets
  • user-avatar
    Login

    Hourly Weather Townsville

    Today, 18 June, Tuesday

    Time Temperature Precipitation Wind Pressure Humidity
    00:00 +19°C° 0 mm 2 mps 755 mmHg 66%
    01:00 +19°C° 0 mm 2 mps 755 mmHg 67%
    02:00 +18°C° 0 mm 2 mps 755 mmHg 67%
    03:00 +18°C° 0 mm 2 mps 755 mmHg 68%
    04:00 +18°C° 0 mm 2 mps 755 mmHg 69%
    05:00 +17°C° 0 mm 2 mps 755 mmHg 70%
    06:00 +17°C° 0 mm 2 mps 755 mmHg 71%
    07:00 +17°C° 0 mm 2 mps 756 mmHg 72%
    08:00 +19°C° 0 mm 2 mps 756 mmHg 65%
    09:00 +22°C° 0 mm 1 mps 756 mmHg 59%
    10:00 +25°C° 0 mm 1 mps 756 mmHg 52%
    11:00 +25°C° 0 mm 2 mps 756 mmHg 51%
    12:00 +26°C° 0 mm 2 mps 755 mmHg 50%
    13:00 +27°C° 0 mm 3 mps 754 mmHg 49%
    14:00 +26°C° 0 mm 3 mps 754 mmHg 52%
    15:00 +25°C° 0 mm 3 mps 754 mmHg 55%
    16:00 +25°C° 0 mm 3 mps 754 mmHg 59%
    17:00 +23°C° 0 mm 2 mps 754 mmHg 67%
    18:00 +21°C° 0 mm 2 mps 755 mmHg 74%
    19:00 +20°C° 0 mm 1 mps 755 mmHg 82%
    20:00 +20°C° 0 mm 1 mps 755 mmHg 83%
    21:00 +18°C° 0 mm 2 mps 756 mmHg 84%
    22:00 +18°C° 0 mm 2 mps 756 mmHg 85%
    23:00 +17°C° 0 mm 2 mps 756 mmHg 86%

    Tomorrow, 19 June, Wednesday

    Time Temperature Precipitation Wind Pressure Humidity
    00:00 +17°C° 0 mm 3 mps 756 mmHg 86%
    01:00 +17°C° 0 mm 3 mps 756 mmHg 87%
    02:00 +16°C° 0 mm 3 mps 755 mmHg 87%
    03:00 +16°C° 0 mm 3 mps 755 mmHg 87%
    04:00 +16°C° 0 mm 3 mps 755 mmHg 87%
    05:00 +14°C° 0 mm 3 mps 756 mmHg 86%
    06:00 +15°C° 0 mm 2 mps 756 mmHg 84%
    07:00 +15°C° 0 mm 2 mps 756 mmHg 82%
    08:00 +17°C° 0 mm 2 mps 756 mmHg 68%
    09:00 +19°C° 0 mm 2 mps 757 mmHg 55%
    10:00 +23°C° 0 mm 2 mps 757 mmHg 41%
    11:00 +23°C° 0 mm 2 mps 756 mmHg 39%
    12:00 +24°C° 0 mm 2 mps 756 mmHg 36%
    13:00 +25°C° 0 mm 2 mps 755 mmHg 34%
    14:00 +25°C° 0 mm 3 mps 755 mmHg 36%
    15:00 +25°C° 0 mm 3 mps 755 mmHg 38%
    16:00 +24°C° 0 mm 3 mps 754 mmHg 40%
    17:00 +21°C° 0 mm 2 mps 755 mmHg 47%
    18:00 +19°C° 0 mm 2 mps 755 mmHg 54%
    19:00 +18°C° 0 mm 1 mps 756 mmHg 61%
    20:00 +18°C° 0 mm 1 mps 756 mmHg 62%
    21:00 +16°C° 0 mm 2 mps 756 mmHg 63%
    22:00 +16°C° 0 mm 2 mps 757 mmHg 64%
    23:00 +15°C° 0 mm 2 mps 756 mmHg 65%

    Day after tomorrow, 20 June, Thursday

    Time Temperature Precipitation Wind Pressure Humidity
    00:00 +15°C° 0 mm 2 mps 756 mmHg 66%
    01:00 +15°C° 0 mm 2 mps 756 mmHg 66%
    02:00 +13°C° 0 mm 3 mps 756 mmHg 68%
    03:00 +13°C° 0 mm 3 mps 756 mmHg 70%
    04:00 +13°C° 0 mm 3 mps 756 mmHg 72%
    05:00 +13°C° 0 mm 3 mps 756 mmHg 71%
    06:00 +13°C° 0 mm 3 mps 756 mmHg 70%
    07:00 +13°C° 0 mm 2 mps 756 mmHg 69%
    08:00 +16°C° 0 mm 2 mps 756 mmHg 61%
    09:00 +18°C° 0 mm 2 mps 757 mmHg 53%
    10:00 +20°C° 0 mm 2 mps 757 mmHg 45%
    11:00 +21°C° 0 mm 2 mps 756 mmHg 41%
    12:00 +23°C° 0 mm 2 mps 756 mmHg 38%
    13:00 +24°C° 0 mm 2 mps 755 mmHg 34%
    14:00 +24°C° 0 mm 2 mps 755 mmHg 36%
    15:00 +24°C° 0 mm 2 mps 755 mmHg 37%
    16:00 +24°C° 0 mm 2 mps 755 mmHg 39%
    17:00 +21°C° 0 mm 2 mps 755 mmHg 45%
    18:00 +19°C° 0 mm 2 mps 756 mmHg 51%
    19:00 +18°C° 0 mm 1 mps 756 mmHg 57%
    20:00 +16°C° 0 mm 1 mps 756 mmHg 56%
    21:00 +16°C° 0 mm 2 mps 757 mmHg 55%
    22:00 +15°C° 0 mm 2 mps 757 mmHg 54%
    23:00 +15°C° 0 mm 2 mps 757 mmHg 55%

    21 June, Friday

    Time Temperature Precipitation Wind Pressure Humidity
    00:00 +14°C° 0 mm 2 mps 756 mmHg 55%
    01:00 +13°C° 0 mm 3 mps 756 mmHg 56%
    02:00 +13°C° 0 mm 3 mps 756 mmHg 57%
    03:00 +13°C° 0 mm 3 mps 756 mmHg 58%
    04:00 +13°C° 0 mm 3 mps 756 mmHg 60%
    05:00 +12°C° 0 mm 3 mps 756 mmHg 62%
    06:00 +12°C° 0 mm 3 mps 756 mmHg 63%
    07:00 +12°C° 0 mm 3 mps 756 mmHg 65%
    08:00 +14°C° 0 mm 3 mps 757 mmHg 58%
    09:00 +18°C° 0 mm 3 mps 757 mmHg 51%
    10:00 +20°C° 0 mm 4 mps 757 mmHg 45%
    11:00 +21°C° 0 mm 3 mps 756 mmHg 42%
    12:00 +22°C° 0 mm 3 mps 756 mmHg 39%
    13:00 +24°C° 0 mm 3 mps 755 mmHg 37%
    14:00 +24°C° 0 mm 3 mps 755 mmHg 38%
    15:00 +24°C° 0 mm 3 mps 755 mmHg 38%
    16:00 +24°C° 0 mm 3 mps 755 mmHg 39%
    17:00 +21°C° 0 mm 3 mps 755 mmHg 45%
    18:00 +19°C° 0 mm 3 mps 756 mmHg 50%
    19:00 +17°C° 0 mm 3 mps 756 mmHg 56%
    20:00 +17°C° 0 mm 3 mps 757 mmHg 58%
    21:00 +16°C° 0 mm 3 mps 757 mmHg 59%
    22:00 +14°C° 0 mm 4 mps 757 mmHg 61%
    23:00 +14°C° 0 mm 4 mps 757 mmHg 62%

    22 June, Saturday

    Time Temperature Precipitation Wind Pressure Humidity
    00:00 +13°C° 0 mm 4 mps 757 mmHg 62%
    01:00 +13°C° 0 mm 4 mps 757 mmHg 63%
    02:00 +12°C° 0 mm 4 mps 756 mmHg 63%
    03:00 +12°C° 0 mm 4 mps 756 mmHg 63%
    04:00 +11°C° 0 mm 4 mps 756 mmHg 62%
    05:00 +11°C° 0 mm 4 mps 756 mmHg 60%
    06:00 +10°C° 0 mm 4 mps 757 mmHg 58%
    07:00 +10°C° 0 mm 4 mps 757 mmHg 55%
    08:00 +12°C° 0 mm 4 mps 757 mmHg 47%
    09:00 +14°C° 0 mm 4 mps 757 mmHg 39%
    10:00 +17°C° 0 mm 4 mps 757 mmHg 32%
    11:00 +18°C° 0 mm 4 mps 757 mmHg 29%
    12:00 +20°C° 0 mm 4 mps 756 mmHg 25%
    13:00 +21°C° 0 mm 3 mps 755 mmHg 22%
    14:00 +21°C° 0 mm 3 mps 755 mmHg 23%
    15:00 +21°C° 0 mm 3 mps 755 mmHg 24%
    16:00 +21°C° 0 mm 3 mps 755 mmHg 25%
    17:00 +19°C° 0 mm 4 mps 755 mmHg 29%
    18:00 +17°C° 0 mm 4 mps 756 mmHg 33%
    19:00 +14°C° 0 mm 4 mps 756 mmHg 37%
    20:00 +13°C° 0 mm 4 mps 757 mmHg 38%
    21:00 +12°C° 0 mm 4 mps 757 mmHg 39%
    22:00 +11°C° 0 mm 4 mps 758 mmHg 40%
    23:00 +11°C° 0 mm 4 mps 757 mmHg 41%

    23 June, Sunday

    Time Temperature Precipitation Wind Pressure Humidity
    00:00 +10°C° 0 mm 4 mps 757 mmHg 42%
    01:00 +10°C° 0 mm 4 mps 757 mmHg 43%
    02:00 +10°C° 0 mm 4 mps 757 mmHg 44%
    03:00 +8°C° 0 mm 4 mps 756 mmHg 46%
    04:00 +8°C° 0 mm 4 mps 756 mmHg 47%
    05:00 +8°C° 0 mm 4 mps 757 mmHg 49%
    06:00 +7°C° 0 mm 4 mps 757 mmHg 51%
    07:00 +7°C° 0 mm 4 mps 757 mmHg 53%
    08:00 +11°C° 0 mm 4 mps 757 mmHg 49%
    09:00 +13°C° 0 mm 3 mps 757 mmHg 44%
    10:00 +17°C° 0 mm 3 mps 757 mmHg 40%
    11:00 +19°C° 0 mm 3 mps 757 mmHg 36%
    12:00 +20°C° 0 mm 3 mps 756 mmHg 32%
    13:00 +23°C° 0 mm 2 mps 756 mmHg 28%
    14:00 +23°C° 0 mm 2 mps 755 mmHg 27%
    15:00 +23°C° 0 mm 2 mps 755 mmHg 27%
    16:00 +24°C° 0 mm 2 mps 755 mmHg 27%
    17:00 +20°C° 0 mm 2 mps 755 mmHg 33%
    18:00 +18°C° 0 mm 2 mps 756 mmHg 39%
    19:00 +16°C° 0 mm 2 mps 756 mmHg 45%
    20:00 +16°C° 0 mm 2 mps 757 mmHg 49%
    21:00 +15°C° 0 mm 2 mps 757 mmHg 53%
    22:00 +14°C° 0 mm 3 mps 757 mmHg 57%
    23:00 +13°C° 0 mm 3 mps 757 mmHg 60%
    Show more